Wind_Speed
5 5 5 5 5 5 5 5 5 6 6 6 6 5 5 5 5 6 7 7 7 7 7 6 5 5 4 4 4 3 3 3 4 4 5 6 6 6 6 5 6 5 5
5 5 6 6 5 5 5 5 6 5 5 6 6 6 6 6 6 6 7 7 7 7 7 7 6 6 5 5 4 4 4 4 4 4 5 6 7 7 6 6 6 7 6
5 5 6 6 6 6 6 6 6 6 6 6 6 6 6 6 6 6 6 7 6 7 7 7 7 6 6 5 5 5 5 5 5 5 5 6 7 7 7 7 7 7 7
6 6 6 6 6 6 7 7 7 7 7 7 7 7 7 6 6 6 6 7 6 6 6 6 7 6 6 6 5 5 5 6 6 6 6 6 7 7 7 8 7 8 8
6 6 5 6 6 7 7 8 8 8 7 7 7 7 7 7 7 6 7 7 7 7 6 6 6 6 6 6 6 6 5 5 5 6 6 6 7 7 8 8 8 9 10
6 6 6 6 6 6 7 7 8 8 7 7 7 7 7 7 7 7 7 7 7 7 7 7 7 6 6 6 6 6 6 6 6 6 7 7 7 7 8 9 9 9 9
6 7 6 7 6 7 7 7 7 7 7 7 7 7 7 7 7 7 8 8 7 8 8 8 7 7 7 6 7 7 7 7 7 7 7 8 8 9 9 10 9 9 9
7 7 6 7 6 6 6 6 7 7 6 6 6 6 6 6 7 7 8 8 7 7 7 8 8 8 8 7 7 7 7 7 8 8 9 9 9 10 9 10 10 10 10
7 7 7 7 7 7 6 6 6 6 6 6 6 6 5 5 6 6 6 6 7 7 7 7 8 8 8 8 8 8 8 8 8 8 9 9 10 11 11 10 10 10 10
7 6 7 7 7 7 7 6 6 6 6 6 7 7 6 6 6 6 6 6 7 7 7 8 8 8 8 8 8 8 8 8 8 8 9 9 10 11 12 12 12 12 11
6 6 6 7 6 6 6 5 6 6 6 6 7 6 6 6 6 6 6 7 7 7 8 8 8 7 8 8 8 8 8 8 8 9 9 9 9 11 12 13 13 13 13
6 6 6 5 5 5 5 5 5 6 6 6 6 6 6 6 6 6 7 7 7 7 8 8 8 8 8 7 7 7 7 8 8 8 8 9 9 10 11 12 13 14 14
6 6 6 5 5 5 5 5 5 5 5 6 6 6 6 6 7 7 7 7 7 7 7 8 8 7 8 8 8 8 9 8 9 9 9 10 10 10 11 12 13 14 14
6 5 5 5 5 5 5 5 4 5 5 6 6 6 7 7 7 8 8 7 7 7 7 8 8 8 8 8 8 8 8 9 9 10 10 11 11 11 12 13 13 14 14
6 5 6 6 5 5 5 5 4 4 5 5 6 6 6 7 7 7 7 7 7 6 7 7 7 7 8 8 8 9 9 9 10 10 10 11 11 12 12 12 13 14 15
6 5 6 6 6 5 5 5 5 5 5 5 6 6 7 7 7 7 7 7 7 7 7 7 7 8 8 8 8 8 9 10 10 10 10 11 11 12 12 12 12 12 13
6 6 6 6 6 5 5 5 5 6 5 6 6 6 6 6 6 6 6 7 7 7 7 7 7 8 8 8 8 9 9 10 10 10 10 10 11 11 11 11 11 11 11
7 6 6 6 6 6 5 5 5 5 5 6 6 6 6 6 5 6 6 6 6 6 6 7 7 7 8 8 8 9 9 9 9 9 10 10 10 10 10 10 10 10 10
6 6 6 6 6 6 5 4 5 5 5 5 4 4 4 4 5 5 5 5 6 6 6 6 7 7 8 8 8 9 9 8 8 9 10 10 9 9 10 10 10 11 10
6 6 6 6 6 6 5 5 5 5 5 5 4 4 4 4 5 4 4 5 5 4 5 6 6 7 8 8 8 9 9 8 9 9 9 9 9 9 10 10 10 10 10
6 6 6 6 6 6 5 5 5 5 5 5 5 5 5 5 5 5 5 6 5 5 5 6 6 7 7 8 8 8 8 8 8 9 8 8 8 9 8 9 9 9 10
6 6 6 6 6 6 6 6 6 6 6 5 5 5 5 5 5 5 6 6 6 6 7 7 7 8 7 7 7 8 8 8 8 8 8 8 8 8 8 8 8 9 9
7 7 7 7 7 7 7 7 7 7 6 6 6 6 5 6 6 6 6 6 6 6 7 7 7 8 7 7 7 7 8 8 8 8 8 7 7 7 7 8 8 8 9
7 7 7 7 7 7 7 7 7 7 7 7 7 6 6 6 6 6 6 6 6 6 7 7 7 7 7 7 8 8 8 8 7 7 7 7 7 7 8 8 9 9 8
8 8 8 8 8 8 7 7 7 7 7 7 8 7 7 7 7 7 7 7 7 7 7 7 7 7 7 7 7 8 8 8 8 7 7 7 7 8 8 8 9 9 9
9 9 8 8 8 8 8 7 8 8 8 8 8 8 8 8 8 8 8 8 8 8 8 8 8 8 8 8 8 8 8 8 8 8 8 8 8 8 8 9 10 10 11
Wind_Direction
258 254 256 256 255 252 250 250 249 245 241 245 243 240 236 233 231 230 227 233 239 235 236 242 241 243 246 248 244 243 234 215 212 216 218 216 211 214 217 216 215 212 215
260 256 254 255 257 254 251 252 257 253 246 246 249 247 242 239 233 230 229 232 236 239 240 243 239 241 244 242 242 247 239 230 226 224 227 225 221 220 220 222 221 223 225
265 261 260 259 259 259 256 256 259 260 255 249 249 248 249 244 235 233 233 234 238 244 247 245 240 240 238 241 242 248 248 239 237 236 236 235 231 228 225 226 224 226 230
276 268 265 264 264 262 261 259 261 260 256 250 246 247 254 252 244 237 242 242 241 242 248 247 241 238 238 244 248 248 254 247 243 248 244 241 241 240 234 234 238 237 236
278 273 271 270 271 269 266 261 260 260 259 251 247 251 256 260 256 248 244 244 244 245 246 250 251 244 244 250 251 251 254 253 250 255 252 245 248 246 246 244 246 248 247
277 274 275 274 272 271 271 268 263 260 259 253 252 254 257 261 261 258 257 252 253 255 255 255 255 250 251 255 256 255 253 255 255 258 252 250 254 254 253 253 253 254 257
277 275 276 276 274 271 270 269 265 261 259 255 253 255 255 257 260 262 266 261 258 258 259 263 257 250 259 264 260 260 260 258 257 256 257 258 257 257 256 253 253 259 263
283 278 277 279 277 275 271 268 265 259 256 255 254 254 259 259 261 266 271 267 259 262 265 258 255 255 258 261 264 267 267 263 262 259 261 262 259 257 254 251 254 258 263
286 283 284 283 277 275 277 274 267 258 254 254 260 264 263 265 267 269 270 265 257 259 263 261 260 259 260 264 269 269 269 267 263 258 257 259 260 260 256 253 259 264 263
296 288 287 284 276 274 276 275 268 260 259 259 262 265 267 272 277 275 268 265 266 263 262 265 268 269 266 266 268 269 268 271 269 261 258 260 263 263 263 261 263 269 269
310 307 301 292 274 275 276 274 274 264 261 263 265 264 266 272 277 276 269 266 270 265 266 269 270 271 268 267 269 269 269 271 272 267 264 266 268 266 265 265 267 268 270
313 315 310 301 286 281 282 282 276 268 265 266 269 267 264 265 270 275 272 269 269 266 266 268 271 270 270 270 271 271 271 275 273 272 269 269 270 271 272 269 269 269 269
320 316 313 305 299 291 292 295 285 273 268 271 275 269 267 268 269 275 275 272 273 273 270 269 273 273 271 274 275 274 276 276 275 275 275 272 273 275 278 276 273 272 270
323 320 320 317 304 299 300 300 293 283 281 279 279 278 273 271 274 279 279 272 275 275 273 270 270 273 270 270 274 275 277 278 279 280 279 278 276 281 280 278 277 275 272
341 340 336 332 316 299 301 303 299 295 290 286 285 282 277 273 274 278 279 272 270 271 274 271 269 273 272 274 277 276 277 281 281 281 282 281 280 281 284 282 279 275 272
348 345 343 333 326 310 300 301 295 291 290 290 290 288 284 281 277 273 276 274 271 272 275 274 273 274 276 275 278 282 281 281 282 285 285 287 287 284 283 284 283 279 272
350 347 343 338 333 322 306 297 293 290 290 287 288 287 287 285 281 276 277 274 272 273 274 274 273 275 278 278 279 281 284 289 286 285 286 290 289 285 281 282 280 280 280
347 347 347 338 336 326 315 309 300 294 294 293 292 288 284 283 279 280 282 281 278 278 275 273 275 278 279 279 281 282 284 289 289 288 290 292 289 286 286 285 282 282 286
342 344 344 339 336 334 326 319 313 312 304 303 302 299 287 280 280 282 284 289 287 284 282 278 279 280 284 287 288 287 288 289 292 296 297 293 292 290 290 288 286 288 289
340 341 344 342 338 338 329 320 318 322 320 314 311 306 298 290 288 293 291 296 293 293 290 284 282 284 287 289 287 288 291 291 293 297 299 297 292 291 290 290 290 292 291
335 336 341 340 334 331 328 321 319 316 313 308 306 308 306 306 304 303 301 301 300 297 297 289 286 293 295 296 295 295 294 296 297 298 299 299 296 295 293 292 293 293 293
331 331 331 332 333 325 324 320 315 312 311 307 304 302 299 299 298 296 297 302 302 299 297 296 295 297 298 298 301 301 301 300 298 300 299 299 296 296 296 297 297 295 296
323 321 321 324 328 324 316 313 309 309 311 309 307 304 298 301 299 292 295 297 298 301 303 299 300 301 302 304 305 307 306 304 300 300 299 300 299 296 298 301 299 300 301
318 314 312 315 317 319 318 312 307 309 312 309 305 299 294 297 296 292 292 291 293 297 300 299 301 301 304 307 311 307 307 305 305 305 299 298 301 300 300 301 296 297 298
311 308 309 310 308 308 310 313 309 308 308 306 302 299 294 293 296 294 289 288 288 292 296 299 300 298 301 304 306 304 303 304 307 303 303 302 300 297 299 299 297 296 296
307 305 306 306 302 303 307 309 309 310 309 306 304 301 295 294 294 294 292 289 285 287 288 291 293 294 297 297 299 302 300 299 302 301 300 299 297 299 299 297 298 295 294
Height
5872 5871 5871 5872 5872 5872 5872 5872 5872 5872 5873 5873 5873 5873 5873 5874 5874 5874 5875 5876 5876 5877 5877 5878 5878 5879 5879 5879 5880 5880 5880 5880 5880 5881 5882 5883 5884 5885 5885 5886 5887 5888 5889
5871 5870 5871 5871 5871 5871 5871 5871 5871 5871 5872 5872 5872 5872 5872 5873 5873 5873 5874 5875 5875 5876 5876 5877 5878 5878 5878 5879 5879 5879 5880 5880 5880 5880 5881 5882 5883 5884 5885 5885 5886 5887 5888
5870 5870 5870 5870 5870 5870 5870 5871 5871 5871 5871 5871 5871 5871 5872 5872 5872 5873 5873 5874 5874 5875 5875 5876 5877 5877 5878 5878 5879 5879 5879 5879 5879 5880 5880 5881 5882 5883 5884 5884 5885 5886 5887
5869 5869 5869 5869 5869 5869 5869 5869 5869 5870 5870 5870 5870 5870 5871 5871 5871 5872 5872 5873 5873 5873 5874 5875 5876 5876 5877 5877 5878 5878 5878 5878 5879 5879 5879 5880 5881 5882 5883 5884 5884 5885 5886
5868 5868 5868 5868 5868 5868 5868 5868 5868 5868 5868 5869 5869 5869 5870 5870 5870 5871 5871 5872 5872 5872 5873 5874 5875 5875 5876 5876 5877 5877 5878 5878 5878 5878 5878 5879 5880 5881 5882 5882 5883 5884 5884
5867 5867 5867 5867 5867 5867 5867 5867 5867 5867 5867 5867 5868 5868 5869 5869 5870 5870 5871 5871 5871 5872 5872 5873 5874 5874 5875 5876 5876 5876 5877 5877 5877 5877 5878 5878 5879 5880 5880 5881 5881 5882 5883
5866 5866 5866 5866 5866 5865 5865 5865 5865 5865 5866 5866 5867 5867 5868 5868 5869 5869 5870 5870 5870 5871 5871 5872 5872 5873 5874 5875 5875 5875 5876 5876 5876 5876 5877 5877 5878 5878 5878 5879 5880 5880 5881
5865 5865 5865 5865 5865 5864 5864 5864 5864 5864 5865 5865 5866 5866 5867 5867 5868 5868 5869 5869 5869 5869 5870 5871 5871 5872 5873 5873 5874 5874 5874 5874 5875 5875 5875 5876 5876 5876 5877 5878 5878 5879 5879
5864 5864 5864 5864 5864 5863 5863 5863 5863 5863 5864 5864 5865 5865 5866 5866 5867 5867 5867 5868 5868 5869 5869 5870 5870 5871 5871 5872 5872 5872 5873 5873 5873 5874 5874 5874 5874 5875 5875 5876 5876 5877 5877
5863 5863 5862 5862 5862 5862 5862 5862 5862 5862 5863 5863 5864 5864 5865 5865 5866 5866 5866 5867 5867 5868 5868 5868 5869 5869 5870 5870 5871 5871 5871 5872 5871 5872 5872 5873 5873 5873 5873 5874 5874 5874 5875
5862 5862 5861 5861 5861 5861 5861 5861 5861 5861 5862 5862 5862 5863 5864 5864 5865 5865 5865 5866 5866 5867 5867 5867 5867 5868 5868 5869 5869 5869 5870 5870 5870 5870 5871 5871 5871 5871 5872 5872 5872 5872 5873
5861 5861 5861 5860 5860 5860 5860 5860 5860 5860 5861 5861 5861 5862 5863 5863 5864 5864 5864 5864 5865 5865 5865 5866 5866 5866 5867 5867 5868 5868 5868 5869 5869 5869 5869 5869 5869 5869 5869 5870 5870 5870 5870
5861 5860 5860 5860 5859 5859 5859 5859 5859 5860 5860 5860 5861 5861 5861 5862 5862 5863 5863 5863 5863 5863 5864 5864 5864 5865 5865 5866 5866 5866 5867 5867 5867 5867 5867 5867 5867 5867 5867 5867 5867 5868 5868
5860 5860 5859 5859 5859 5858 5859 5858 5859 5859 5859 5859 5860 5860 5860 5860 5861 5861 5861 5861 5862 5862 5862 5863 5863 5863 5864 5864 5864 5865 5865 5865 5865 5865 5865 5865 5865 5865 5865 5865 5865 5865 5865
5860 5859 5859 5858 5858 5858 5858 5858 5858 5858 5858 5858 5858 5859 5859 5859 5860 5860 5860 5860 5860 5861 5861 5861 5862 5862 5862 5862 5863 5863 5863 5863 5863 5863 5863 5863 5863 5862 5862 5862 5862 5862 5862
5860 5859 5858 5858 5858 5857 5857 5857 5857 5857 5857 5857 5858 5858 5858 5858 5858 5858 5859 5859 5859 5859 5859 5860 5860 5860 5860 5861 5861 5861 5861 5861 5861 5861 5861 5860 5860 5860 5860 5859 5859 5859 5858
5859 5859 5858 5858 5857 5857 5857 5857 5857 5857 5857 5857 5857 5857 5857 5857 5857 5857 5857 5858 5858 5858 5858 5858 5858 5859 5859 5859 5859 5859 5859 5858 5858 5858 5858 5858 5858 5857 5857 5857 5856 5856 5856
5859 5859 5858 5857 5857 5857 5856 5856 5856 5856 5856 5856 5856 5856 5856 5856 5856 5856 5856 5856 5856 5857 5857 5857 5857 5857 5857 5857 5857 5857 5857 5856 5856 5856 5856 5856 5855 5855 5855 5855 5854 5854 5854
5859 5859 5858 5857 5857 5856 5856 5856 5856 5855 5855 5855 5855 5855 5855 5855 5855 5855 5855 5855 5855 5855 5855 5856 5856 5856 5856 5856 5856 5856 5855 5855 5855 5854 5854 5853 5853 5853 5853 5852 5852 5852 5851
5859 5858 5858 5857 5857 5856 5856 5855 5855 5855 5855 5854 5854 5854 5854 5854 5854 5854 5854 5854 5854 5854 5854 5854 5854 5854 5854 5854 5854 5854 5853 5853 5853 5852 5852 5851 5851 5851 5850 5850 5850 5849 5849
5859 5858 5858 5857 5857 5856 5856 5855 5855 5855 5854 5854 5854 5853 5853 5853 5853 5853 5853 5853 5853 5853 5853 5853 5853 5853 5853 5853 5852 5852 5852 5851 5851 5851 5850 5849 5849 5848 5848 5848 5847 5847 5847
5859 5858 5857 5856 5856 5856 5855 5855 5854 5854 5854 5853 5853 5852 5852 5852 5852 5852 5852 5852 5852 5852 5852 5852 5851 5851 5851 5851 5851 5850 5850 5850 5849 5849 5848 5847 5847 5846 5846 5846 5845 5845 5845
5858 5857 5856 5856 5855 5855 5854 5854 5853 5853 5852 5852 5852 5852 5851 5851 5851 5851 5851 5851 5851 5851 5850 5850 5850 5850 5849 5849 5849 5849 5849 5848 5848 5847 5846 5846 5845 5845 5845 5844 5844 5844 5843
5857 5856 5856 5855 5854 5854 5853 5853 5852 5852 5851 5851 5851 5850 5850 5850 5850 5850 5849 5849 5849 5849 5849 5849 5848 5848 5848 5848 5847 5847 5847 5847 5847 5846 5845 5844 5844 5844 5843 5843 5842 5842 5841
5856 5855 5854 5854 5853 5852 5852 5852 5851 5850 5850 5849 5849 5849 5849 5848 5848 5848 5848 5847 5847 5847 5847 5847 5847 5846 5846 5846 5846 5845 5845 5845 5844 5844 5844 5843 5843 5842 5842 5841 5841 5840 5840
5854 5854 5853 5852 5852 5851 5851 5850 5850 5849 5848 5848 5847 5847 5847 5847 5847 5846 5846 5846 5845 5845 5845 5845 5845 5845 5845 5844 5844 5843 5843 5843 5842 5842 5842 5842 5841 5840 5840 5839 5839 5838 5838